Regional Weather Roundup
Issued by NWS

Home | Current Version | Previous Version | Text Only | Print | Product List | Glossary Off
Versions: 1 2 3 4 5 6 7 8 9 10 11 12 13 14 15 16 17 18 19 20 21 22 23 24 25 26 27 28 29 30 31 32 33 34 35 36 37 38 39 40 41 42 43 44 45 46 47 48 49 50

526
ASUS43 KLSX 172207
RWRMO

WEATHER SUMMARY FOR MISSOURI
NATIONAL WEATHER SERVICE SPRINGFIELD MO
500 PM CDT TUE OCT 17 2017

NOTE: "FAIR" INDICATES FEW OR NO CLOUDS BELOW 12,000 FEET WITH NO
       SIGNIFICANT WEATHER AND/OR OBSTRUCTIONS TO VISIBILITY.
       CURRENT SKY AND/OR WEATHER CONDITIONS ARE NOT AVAILABLE FOR
       CHILLICOTHE AND FARMINGTON.

MOZ001>031-035>038-043-044-053-054-172300-
...NORTHERN AND WESTERN MISSOURI...

CITY           SKY/WX    TMP DP  RH WIND       PRES   REMARKS
KANSAS CTY INT MOSUNNY   70  47  43 S13       30.08F
KANSAS C DTWN  SUNNY     71  48  43 S10       30.08F
LEE`S SUMMIT   SUNNY     69  47  45 S13       30.11F
ST JOSEPH      SUNNY     73  46  38 SW15      30.05F
CHILLICOTHE      N/A     70  46  42 S9        30.10F
KIRKSVILLE     SUNNY     70  44  39 S13G21    30.12F

$$
MOZ066>068-077>081-088>096-101>105-172300-
...SOUTHWEST MISSOURI...

CITY           SKY/WX    TMP DP  RH WIND       PRES   REMARKS
SPRINGFIELD    SUNNY     70  41  34 S7        30.17F
JOPLIN         SUNNY     71  45  39 S9        30.16F
BRANSON        SUNNY     70  37  30 S5        30.20F

$$
MOZ032>034-039>042-045>050-055>058-069>072-172300-
...CENTRAL MISSOURI...

CITY           SKY/WX    TMP DP  RH WIND       PRES   REMARKS
COLUMBIA       SUNNY     69  45  41 S12       30.16F
JEFFERSON CITY SUNNY     70  41  34 S9        30.15F
ROLLA          SUNNY     67  40  37 S8        30.19F
SEDALIA        SUNNY     71  45  39 S12       30.15F
WHITEMAN AFB   SUNNY     69  45  42 SW15      30.09F
WARRENSBURG    SUNNY     68  45  42 SE13      30.12F
OSAGE BEACH    SUNNY     70  42  36 S9        30.17F

$$
MOZ051-052-059>065-172300-
...EAST CENTRAL MISSOURI...

CITY           SKY/WX    TMP DP  RH WIND       PRES   REMARKS
ST LOUIS INTL  MOSUNNY   69  38  32 S8        30.19F
SPIRIT OF STL  SUNNY     69  39  33 S5        30.18F
ST CHARLES     SUNNY     69  38  32 S10       30.18F

$$
MOZ072>076-082>087-097>100-106>115-172300-
...SOUTH CENTRAL AND SOUTHEAST MISSOURI...

CITY           SKY/WX    TMP DP  RH WIND       PRES   REMARKS
CAPE GIRARDEAU SUNNY     67  39  35 SW5       30.23F
FARMINGTON     SUNNY     67  40  37 SE7       30.22F
POPLAR BLUFF   SUNNY     68  39  34 S3        30.22F
WEST PLAINS    SUNNY     68  34  28 S8        30.22F

$$



USA.gov is the U.S. government's official web portal to all federal, state and local government web resources and services.